"2010-03-08 00:00:00",1742679,5.048,329.1,4.619,0.831,8.06,102.1327,4.742,6.188,66.55,0,110.2,13.36,5.51,291.1
"2010-03-08 00:00:30",1742680,4.951,333.7,6.509,0.684,8.04,102.1271,4.728,6.183,66.61,0,110.2,13.36,5.50,295.7
"2010-03-08 00:01:00",1742681,4.265,337.6,5.555,1.247,6.258,102.1073,4.677,6.093,66.59,0,110.2,13.36,5.45,299.6
"2010-03-08 00:01:30",1742682,3.273,324.4,6.663,1.009,3.321,102.0988,4.656,5.839,66.55,0,110.2,13.36,5.42,286.4
"2010-03-08 00:02:00",1742683,2.792,321.7,3.183,0.155,2.572,102.0988,4.656,5.828,66.71,0,110.2,13.39,5.42,283.7
"2010-03-08 00:02:30",1742684,4.097,326.9,6.115,1.292,5.177,102.1006,4.66,5.959,66.9,0,110.1,13.36,5.43,288.9
"2010-03-08 00:03:00",1742685,3.911,327.1,4.804,1.154,5.2,102.1023,4.664,5.965,66.92,0,110.1,13.36,5.43,289.1
"2010-03-08 00:03:30",1742686,5.709,328.6,4.711,0.723,8.06,102.1021,4.664,6.113,67.08,0,110.1,13.36,5.43,290.6
"2010-03-08 00:04:00",1742687,5.841,332.9,4.841,0.708,8.06,102.0821,4.613,6.105,67.02,0,110.1,13.36,5.38,294.9
"2010-03-08 00:04:30",1742688,3.819,336,4.895,1.375,4.419,102.0803,4.608,5.833,66.75,0,110.1,13.36,5.38,298.0
"2010-03-08 00:05:00",1742689,2.308,325.5,3.667,0.137,2.531,102.086,4.623,5.74,66.66,0,110.1,13.39,5.39,287.5
"2010-03-08 00:05:30",1742690,3.286,330.6,7.782,1.216,4.467,102.0912,4.636,5.763,66.79,0,110.1,13.36,5.40,292.6
"2010-03-08 00:06:00",1742691,3.908,321.4,7.399,1.254,5.226,102.0955,4.647,5.873,67.04,0,110.1,13.36,5.42,283.4
"2010-03-08 00:06:30",1742692,2.808,316.5,1.814,0.094,3.535,102.0922,4.639,5.696,66.96,0,110.1,13.4,5.41,278.5
"2010-03-08 00:07:00",1742693,4.434,339.4,10.59,1.195,6.857,102.084,4.618,6.011,67.28,0,110.1,13.37,5.39,301.4
"2010-03-08 00:07:30",1742694,5.018,335.7,8.56,0.897,7.398,102.0682,4.577,5.991,67.35,0,110.1,13.37,5.35,297.7
"2010-03-08 00:08:00",1742695,4.011,338.1,12.1,1.274,5.623,102.0657,4.571,5.817,67.31,0,110.1,13.37,5.34,300.1
"2010-03-08 00:08:30",1742696,3.994,326.7,9.78,1.236,4.648,102.0657,4.571,5.712,67.27,0,110.1,13.37,5.34,288.7
"2010-03-08 00:09:00",1742697,3.671,327.2,5.421,1.026,4.215,102.0654,4.57,5.808,67.43,0,110.1,13.37,5.34,289.2
"2010-03-08 00:09:30",1742698,3.624,336.5,3.827,1.125,4.122,102.0564,4.547,5.646,67.38,0,110.1,13.37,5.32,298.5
"2010-03-08 00:10:00",1742699,4.167,332.2,7.746,1.264,6.194,102.0389,4.502,5.889,67.69,0,110.1,13.38,5.27,294.2
"2010-03-08 00:10:30",1742700,5.341,334.9,9.29,0.954,7.735,102.033,4.487,5.939,67.79,0,110.1,13.38,5.26,296.9
"2010-03-08 00:11:00",1742701,4.582,337.9,8.46,1.271,5.894,102.0318,4.484,5.811,67.7,0,110.1,13.38,5.25,299.9
"2010-03-08 00:11:30",1742702,3.93,335.4,6.405,1.122,4.536,102.0318,4.484,5.702,67.65,0,110.1,13.38,5.25,297.4
"2010-03-08 00:12:00",1742703,3.737,336.7,6.275,1.103,4.655,102.0318,4.484,5.725,67.76,0,110.1,13.38,5.25,298.7
"2010-03-08 00:12:30",1742704,3.406,335.5,6.167,0.756,3.457,102.0228,4.461,5.642,67.78,0,110.1,13.38,5.23,297.5
"2010-03-08 00:13:00",1742705,3.864,349.3,9.02,1.109,5.286,102.0014,4.407,5.796,68.1,0,110.1,13.38,5.17,311.3
"2010-03-08 00:13:30",1742706,4.24,350,5.885,1.492,6.686,101.998,4.398,5.741,68.13,0,110.1,13.38,5.17,312.0
"2010-03-08 00:14:00",1742707,3.631,342.3,7.412,1.498,5.909,101.998,4.398,5.681,68.16,0,110.1,13.38,5.17,304.3
"2010-03-08 00:14:30",1742708,3.008,347,7.213,1.564,5.068,101.9963,4.394,5.717,68.29,0,110.1,13.38,5.16,309.0
"2010-03-08 00:15:00",1742709,4.506,353.9,6.44,1.207,6.01,101.9762,4.343,5.67,68.39,0,110.1,13.38,5.11,315.9
"2010-03-08 00:15:30",1742710,3.207,349.8,6.011,0.919,3.816,101.9655,4.315,5.638,68.5,0,110.1,13.38,5.08,311.8
"2010-03-08 00:16:00",1742711,4.12,346.3,6.783,1.34,5.433,101.967,4.319,5.593,68.61,0,110.1,13.38,5.09,308.3
"2010-03-08 00:16:30",1742712,5.01,343.8,6.055,1.19,6.662,101.9679,4.321,5.651,68.75,0,110.1,13.38,5.09,305.8
"2010-03-08 00:17:00",1742713,4.537,336.7,6.617,1.343,5.857,101.9607,4.303,5.62,68.8,0,110.1,13.38,5.07,298.7
"2010-03-08 00:17:30",1742714,3.44,328.7,8.23,1.003,3.773,101.9492,4.273,5.525,68.73,0,110.1,13.38,5.04,290.7
"2010-03-08 00:18:00",1742715,4.718,337.7,6.909,1.18,6.605,101.951,4.278,5.651,68.97,0,110.1,13.38,5.05,299.7
"2010-03-08 00:18:30",1742716,4.195,336.1,6.35,1.34,5.484,101.9561,4.291,5.548,68.94,0,110.1,13.38,5.06,298.1
"2010-03-08 00:19:00",1742717,3.208,327.6,3.505,0.519,3.282,101.9551,4.288,5.38,68.83,0,110.1,13.38,5.06,289.6
"2010-03-08 00:19:30",1742718,5.106,340.1,6.488,1.136,6.953,101.943,4.258,5.628,69.05,0,110.1,13.38,5.02,302.1
"2010-03-08 00:20:00",1742719,4.795,337.9,6.399,1.198,6.663,101.9309,4.227,5.53,68.95,0,110.1,13.38,4.99,299.9
"2010-03-08 00:20:30",1742720,3.795,331.9,4.097,1.227,5.555,101.9309,4.227,5.507,68.99,0,110.1,13.38,4.99,293.9
"2010-03-08 00:21:00",1742721,4.655,336.7,6.058,1.205,6.664,101.9309,4.227,5.547,69.08,0,110.1,13.38,4.99,298.7
"2010-03-08 00:21:30",1742722,4.546,337.1,6.302,1.226,6.854,101.9213,4.202,5.558,69.11,0,110.1,13.38,4.97,299.1
"2010-03-08 00:22:00",1742723,3.484,324.8,5.986,0.889,4.179,101.9049,4.16,5.287,68.89,0,110,13.38,4.93,286.8
"2010-03-08 00:22:30",1742724,4.452,330.3,6.663,1.329,6.017,101.897,4.14,5.533,69.22,0,110,13.38,4.91,292.3
"2010-03-08 00:23:00",1742725,5.008,330,6.7,1.149,7.265,101.897,4.14,5.498,69.26,0,110,13.39,4.91,292.0
"2010-03-08 00:23:30",1742726,4.231,328.4,6.034,1.283,5.875,101.897,4.14,5.381,69.18,0,110,13.39,4.91,290.4
"2010-03-08 00:24:00",1742727,4.579,333.7,6.811,1.274,6.575,101.897,4.14,5.494,69.38,0,110,13.39,4.91,295.7
"2010-03-08 00:24:30",1742728,5.029,336,6.434,1.126,6.815,101.897,4.14,5.482,69.5,0,110.1,13.39,4.91,298.0
"2010-03-08 00:25:00",1742729,4.003,329,4.047,1.118,4.235,101.897,4.14,5.241,69.34,0,110.1,13.39,4.91,291.0
"2010-03-08 00:25:30",1742730,5.024,337.5,5.932,1.18,6.407,101.897,4.14,5.428,69.61,0,110,13.39,4.91,299.5
"2010-03-08 00:26:00",1742731,5.208,338.9,5.871,1.156,6.994,101.8936,4.132,5.413,69.65,0,110.1,13.4,4.90,300.9
"2010-03-08 00:26:30",1742732,4.484,336.1,6.879,1.243,5.701,101.8877,4.116,5.332,69.6,0,110,13.4,4.88,298.1
"2010-03-08 00:27:00",1742733,3.919,331,5.354,1.094,4.568,101.8705,4.072,5.35,69.67,0,110,13.4,4.84,293.0
"2010-03-08 00:27:30",1742734,5.138,334.7,6.223,1.109,7.089,101.8634,4.054,5.423,69.77,0,110,13.4,4.82,296.7
"2010-03-08 00:28:00",1742735,3.758,324.2,5.466,0.89,4.21,101.8631,4.054,5.333,69.76,0,110,13.4,4.82,286.2
"2010-03-08 00:28:30",1742736,5.111,330.5,6.718,1.143,6.837,101.8634,4.054,5.341,69.79,0,110,13.4,4.82,292.5
"2010-03-08 00:29:00",1742737,5.015,333.4,6.338,1.164,7.321,101.8652,4.059,5.4,69.91,0,110,13.4,4.83,295.4
"2010-03-08 00:29:30",1742738,4.383,331.1,6.961,1.287,6.198,101.8677,4.066,5.297,69.88,0,110,13.4,4.83,293.1
"2010-03-08 00:30:00",1742739,3.24,325.6,5.605,0.997,5.236,101.8707,4.073,5.295,69.94,0,110,13.4,4.84,287.6
"2010-03-08 00:30:30",1742740,4.794,332,5.897,1.157,7.299,101.8679,4.066,5.394,70.02,0,110,13.4,4.83,294.0
"2010-03-08 00:31:00",1742741,3.088,321.7,7.695,1.168,5.075,101.8494,4.019,5.196,69.81,0,110,13.4,4.78,283.7
"2010-03-08 00:31:30",1742742,2.267,319,5.938,0.491,4.982,101.8534,4.029,5.271,69.82,0,110,13.43,4.80,281.0
"2010-03-08 00:32:00",1742743,3.978,318.4,6.886,1.093,8.13,101.8574,4.039,5.345,69.81,0,110,13.4,4.81,280.4
"2010-03-08 00:32:30",1742744,3.092,316.2,8.18,1.232,6.691,101.8604,4.047,5.224,69.65,0,110,13.4,4.81,278.2
"2010-03-08 00:33:00",1742745,2.17,310.5,4.793,0.631,4.215,101.8443,4.006,5.095,69.49,0,110,13.41,4.77,272.5
"2010-03-08 00:33:30",1742746,2.618,313.9,11.38,1.383,5.909,101.8324,3.975,5.228,69.63,0,110,13.4,4.74,275.9
"2010-03-08 00:34:00",1742747,2.968,309.7,7.389,1.315,6.187,101.8299,3.969,5.237,69.69,0,110,13.4,4.73,271.7
"2010-03-08 00:34:30",1742748,2.882,310,12.65,1.242,6.567,101.8299,3.969,5.232,69.72,0,110,13.4,4.73,272.0
"2010-03-08 00:35:00",1742749,2.122,316.5,4.092,0.531,3.979,101.8299,3.969,5.056,69.62,0,110,13.4,4.73,278.5
"2010-03-08 00:35:30",1742750,3.971,327.5,6.543,1.156,7.572,101.8262,3.959,5.281,69.92,0,110,13.4,4.73,289.5
"2010-03-08 00:36:00",1742751,4.178,330.3,6.864,1.219,7.599,101.8093,3.916,5.244,69.98,0,110,13.4,4.68,292.3
"2010-03-08 00:36:30",1742752,3.77,324.6,8.35,1.425,6.668,101.7966,3.884,5.142,70.01,0,110,13.4,4.65,286.6
"2010-03-08 00:37:00",1742753,3.349,325.5,4.81,0.987,5.118,101.796,3.882,5.146,70.05,0,110,13.41,4.65,287.5
"2010-03-08 00:37:30",1742754,4.608,332.4,6.947,1.223,7.536,101.796,3.882,5.148,70.11,0,110,13.41,4.65,294.4
"2010-03-08 00:38:00",1742755,4.05,328.9,5.522,1.132,5.45,101.796,3.882,5.065,70.08,0,110,13.41,4.65,290.9
"2010-03-08 00:38:30",1742756,5.278,334.7,6.322,1.141,7.995,101.796,3.882,5.252,70.26,0,110,13.41,4.65,296.7
"2010-03-08 00:39:00",1742757,5.512,333.7,5.417,1.127,8.22,101.796,3.882,5.177,70.2,0,110,13.41,4.65,295.7
"2010-03-08 00:39:30",1742758,5.691,332.5,6.018,1.063,7.418,101.7943,3.878,5.104,70.11,0,110,13.41,4.64,294.5
"2010-03-08 00:40:00",1742759,4.001,323.6,4.778,0.896,4.982,101.7872,3.86,5.09,70.16,0,110,13.41,4.63,285.6
"2010-03-08 00:40:30",1742760,4.912,328.5,6.751,1.287,6.402,101.7816,3.846,4.982,70.14,0,110,13.42,4.61,290.5
"2010-03-08 00:41:00",1742761,4.396,327.8,6.256,1.198,6.48,101.7794,3.84,5.186,70.47,0,110,13.42,4.61,289.8
"2010-03-08 00:41:30",1742762,5.411,332,5.788,1.09,8.28,101.7706,3.817,5.191,70.62,0,110,13.42,4.58,294.0
"2010-03-08 00:42:00",1742763,5.3,332.2,5.699,1.152,8.24,101.7693,3.814,5.174,70.72,0,110,13.42,4.58,294.2
"2010-03-08 00:42:30",1742764,4.988,333.3,7.027,1.168,7.575,101.7725,3.822,5.036,70.7,0,110,13.42,4.59,295.3
"2010-03-08 00:43:00",1742765,3.859,329.3,6.542,1.067,5.604,101.7776,3.835,5.052,70.81,0,109.9,13.42,4.60,291.3
"2010-03-08 00:43:30",1742766,3.71,330.1,3.758,0.95,4.548,101.7828,3.849,4.895,70.72,0,110,13.42,4.61,292.1
"2010-03-08 00:44:00",1742767,4.483,333,5.78,1.281,6.609,101.7798,3.841,5.104,71.01,0,109.9,13.42,4.61,295.0
"2010-03-08 00:44:30",1742768,5.17,336.3,6.144,1.198,7.966,101.7711,3.819,5.152,71.07,0,109.9,13.42,4.58,298.3
"2010-03-08 00:45:00",1742769,5.402,336.4,6.216,1.146,8.4,101.7618,3.795,5.119,71.09,0,109.9,13.42,4.56,298.4
"2010-03-08 00:45:30",1742770,5.037,334.2,5.903,1.262,7.483,101.7627,3.797,5.07,71.07,0,109.9,13.42,4.56,296.2
"2010-03-08 00:46:00",1742771,4.652,330.6,5.84,1.223,6.243,101.7627,3.797,4.993,71.07,0,109.9,13.42,4.56,292.6
"2010-03-08 00:46:30",1742772,3.631,325.6,1.22,0.066,4.193,101.7627,3.797,4.928,71.03,0,109.9,13.46,4.56,287.6
"2010-03-08 00:47:00",1742773,5.202,336.7,5.892,1.14,7.714,101.7621,3.796,4.991,71.17,0,109.9,13.43,4.56,298.7
"2010-03-08 00:47:30",1742774,5.586,338.1,5.379,1.025,8.43,101.748,3.76,5.088,71.33,0,109.9,13.43,4.52,300.1
"2010-03-08 00:48:00",1742775,5.376,334.6,7.012,1.214,8.17,101.7297,3.713,5.092,71.39,0,109.9,13.43,4.48,296.6
"2010-03-08 00:48:30",1742776,5.47,334.2,5.83,1.06,8.05,101.7288,3.711,5.048,71.45,0,109.9,13.43,4.48,296.2
"2010-03-08 00:49:00",1742777,4.695,329.7,7.684,1.273,6.213,101.7288,3.711,4.844,71.36,0,109.9,13.43,4.48,291.7
"2010-03-08 00:49:30",1742778,3.552,322.1,0.606,0.063,4.21,101.7288,3.711,4.859,71.51,0,109.9,13.46,4.48,284.1
"2010-03-08 00:50:00",1742779,4.727,328.4,6.584,1.274,6.948,101.724,3.699,4.996,71.75,0,109.9,13.43,4.46,290.4
"2010-03-08 00:50:30",1742780,5.45,332.3,4.983,1.028,8.59,101.7028,3.644,5.022,71.88,0,109.9,13.43,4.41,294.3
"2010-03-08 00:51:00",1742781,5.224,329.4,5.901,1.137,8.35,101.6972,3.63,4.949,71.91,0,109.9,13.43,4.39,291.4
"2010-03-08 00:51:30",1742782,4.658,325.7,6.263,1.23,7.732,101.6992,3.635,5.003,72,0,109.9,13.43,4.40,287.7
"2010-03-08 00:52:00",1742783,3.686,320.3,5.457,1,5.328,101.7044,3.648,4.833,71.93,0,109.9,13.43,4.41,282.3
"2010-03-08 00:52:30",1742784,3.266,317.5,3.528,0.444,4.746,101.7064,3.654,4.76,71.85,0,109.9,13.44,4.42,279.5
"2010-03-08 00:53:00",1742785,4.772,324.4,5.265,1.168,7.687,101.7051,3.65,4.922,72.05,0,109.9,13.43,4.42,286.4
"2010-03-08 00:53:30",1742786,4.554,321.8,6.459,1.213,7.598,101.697,3.63,4.953,72.16,0,109.9,13.43,4.39,283.8
"2010-03-08 00:54:00",1742787,4.902,323.8,6.074,1.162,8.63,101.6866,3.603,4.939,72.23,0,109.9,13.44,4.37,285.8
"2010-03-08 00:54:30",1742788,5.149,323.2,5.6,1.099,8.35,101.6897,3.611,4.928,72.28,0,109.9,13.44,4.38,285.2
"2010-03-08 00:55:00",1742789,4.513,315.9,6.18,1.218,7.039,101.692,3.617,4.764,72.22,0,109.9,13.44,4.38,277.9
"2010-03-08 00:55:30",1742790,3.155,309.1,0.936,0.052,4.609,101.6946,3.624,4.676,72.21,0,109.9,13.48,4.39,271.1
"2010-03-08 00:56:00",1742791,3.886,314.6,6.299,1.09,6.101,101.6938,3.621,4.795,72.42,0,109.9,13.45,4.39,276.6
"2010-03-08 00:56:30",1742792,4.597,319.3,6.283,1.195,8.12,101.6879,3.606,4.903,72.56,0,109.8,13.45,4.37,281.3
"2010-03-08 00:57:00",1742793,4.588,319.1,6.699,1.205,8.05,101.6743,3.572,4.896,72.58,0,109.9,13.45,4.34,281.1
"2010-03-08 00:57:30",1742794,4.739,318.3,6.052,1.241,7.939,101.6616,3.539,4.844,72.59,0,109.9,13.45,4.30,280.3
"2010-03-08 00:58:00",1742795,4.451,317.2,5.467,1.229,7.176,101.6616,3.539,4.755,72.56,0,109.9,13.45,4.30,279.2
"2010-03-08 00:58:30",1742796,3.32,313.8,0.651,0.101,4.271,101.6616,3.539,4.628,72.46,0,109.8,13.48,4.30,275.8
"2010-03-08 00:59:00",1742797,4.839,322,6.93,1.24,7.018,101.6616,3.539,4.706,72.57,0,109.8,13.45,4.30,284.0
"2010-03-08 00:59:30",1742798,5.434,324.5,5.549,1.131,8.53,101.6616,3.539,4.815,72.66,0,109.8,13.45,4.30,286.5
"2010-03-08 01:00:00",1742799,5.467,323.3,5.944,1.078,8.85,101.6616,3.539,4.881,72.7,0,109.8,13.45,4.30,285.3
"2010-03-08 01:00:30",1742800,4.979,324.1,6.052,1.169,8.38,101.6613,3.538,4.848,72.66,0,109.8,13.45,4.30,286.1
"2010-03-08 01:01:00",1742801,4.618,327.1,5.435,1.241,7.712,101.6604,3.536,4.849,72.67,0,109.8,13.45,4.30,289.1
"2010-03-08 01:01:30",1742802,3.969,327.4,4.583,1.089,5.432,101.6545,3.521,4.581,72.44,0,109.8,13.45,4.29,289.4
"2010-03-08 01:02:00",1742803,4.11,331.8,6.345,1.138,5.026,101.6426,3.491,4.65,72.47,0,109.8,13.45,4.25,293.8
"2010-03-08 01:02:30",1742804,5.454,339.9,5.993,1.184,7.274,101.6333,3.467,4.751,72.53,0,109.8,13.46,4.23,301.9
"2010-03-08 01:03:00",1742805,6.453,346.4,4.13,0.798,8.75,101.6299,3.458,4.833,72.49,0,109.8,13.46,4.22,308.4
"2010-03-08 01:03:30",1742806,5.739,343.3,6.191,1.221,7.202,101.6277,3.453,4.752,72.28,0,109.8,13.46,4.22,305.3
"2010-03-08 01:04:00",1742807,5.659,345.1,5.874,1.189,7.322,101.6277,3.453,4.806,72.27,0,109.8,13.46,4.22,307.1
"2010-03-08 01:04:30",1742808,4.222,334.9,5.161,0.786,4.165,101.6305,3.46,4.566,71.98,0,109.8,13.46,4.22,296.9
"2010-03-08 01:05:00",1742809,4.616,337.4,5.989,1.127,5.397,101.6334,3.467,4.765,72.16,0,109.8,13.46,4.23,299.4
"2010-03-08 01:05:30",1742810,5.423,339,5.905,1.096,7.623,101.6374,3.478,4.733,72.14,0,109.8,13.46,4.24,301.0
"2010-03-08 01:06:00",1742811,4.414,331.2,5.202,1.211,7.747,101.6438,3.494,4.848,72.3,0,109.8,13.46,4.26,293.2
"2010-03-08 01:06:30",1742812,4.616,329.4,5.835,1.093,7.848,101.6365,3.475,4.718,72.24,0,109.9,13.46,4.24,291.4
"2010-03-08 01:07:00",1742813,4.049,320.1,6.587,1.291,7.278,101.621,3.436,4.777,72.4,0,109.8,13.46,4.20,282.1
"2010-03-08 01:07:30",1742814,2.671,310.3,0.581,0.058,4.252,101.623,3.441,4.509,72.34,0,109.8,13.49,4.20,272.3
"2010-03-08 01:08:00",1742815,2.888,309.8,2.266,0.53,4.282,101.6259,3.448,4.513,72.64,0,109.8,13.46,4.21,271.8
"2010-03-08 01:08:30",1742816,4.319,316.5,6.623,1.179,8.09,101.6256,3.447,4.677,73.12,0,109.8,13.46,4.21,278.5
"2010-03-08 01:09:00",1742817,4.065,312.7,6.593,1.21,8.41,101.6276,3.453,4.691,73.32,0,109.8,13.46,4.22,274.7
"2010-03-08 01:09:30",1742818,4.01,309.5,5.995,1.167,8.7,101.6273,3.452,4.703,73.45,0,109.8,13.46,4.22,271.5
"2010-03-08 01:10:00",1742819,4.214,307.3,5.734,1.145,8.65,101.6274,3.452,4.713,73.5,0,109.8,13.46,4.22,269.3
"2010-03-08 01:10:30",1742820,2.915,299.3,2.617,0.595,5.078,101.6223,3.439,4.519,73.41,0,109.8,13.46,4.20,261.3
"2010-03-08 01:11:00",1742821,2.875,298.3,0.715,0.056,4.587,101.6178,3.427,4.479,73.44,0,109.8,13.5,4.19,260.3
"2010-03-08 01:11:30",1742822,3.769,302.5,6.148,1.183,6.204,101.6141,3.418,4.646,73.69,0,109.8,13.47,4.18,264.5
"2010-03-08 01:12:00",1742823,4.642,306.8,6.335,1.174,8.52,101.6118,3.412,4.697,73.83,0,109.8,13.47,4.18,268.8
"2010-03-08 01:12:30",1742824,5.202,306.9,5.137,0.959,9.06,101.6101,3.408,4.708,73.96,0,109.8,13.47,4.17,268.9
"2010-03-08 01:13:00",1742825,4.517,303.8,6.396,1.265,7.899,101.6081,3.403,4.688,74.06,0,109.8,13.47,4.17,265.8
"2010-03-08 01:13:30",1742826,4.109,302.9,6.215,1.274,7.169,101.6031,3.39,4.607,74.06,0,109.8,13.47,4.15,264.9
"2010-03-08 01:14:00",1742827,2.843,298.9,0.748,0.03,4.558,101.5974,3.375,4.46,73.99,0,109.8,13.51,4.14,260.9
"2010-03-08 01:14:30",1742828,2.859,298.3,0.498,0.022,4.572,101.5954,3.37,4.493,74.09,0,109.8,13.51,4.13,260.3
"2010-03-08 01:15:00",1742829,4.343,305.3,6.568,1.239,8.14,101.596,3.372,4.732,74.34,0,109.7,13.48,4.14,267.3
"2010-03-08 01:15:30",1742830,4.337,305.1,6.458,1.234,8.11,101.596,3.372,4.698,74.35,0,109.8,13.48,4.14,267.1
"2010-03-08 01:16:00",1742831,4.544,306.5,5.939,1.169,8.91,101.5957,3.371,4.687,74.38,0,109.8,13.48,4.13,268.5
"2010-03-08 01:16:30",1742832,4.408,308.8,6.689,1.1,8.41,101.5943,3.367,4.654,74.33,0,109.8,13.48,4.13,270.8
"2010-03-08 01:17:00",1742833,2.629,303.4,1.724,0.061,4.327,101.5946,3.368,4.47,74.17,0,109.8,13.51,4.13,265.4
"2010-03-08 01:17:30",1742834,2.648,308.9,1.831,0.027,3.88,101.5943,3.367,4.466,74.14,0,109.8,13.51,4.13,270.9
"2010-03-08 01:18:00",1742835,4.205,321.6,7.228,1.257,7.236,101.5943,3.367,4.613,74.24,0,109.8,13.48,4.13,283.6
"2010-03-08 01:18:30",1742836,4.524,325.1,5.779,1.08,8.02,101.5946,3.368,4.64,74.22,0,109.8,13.48,4.13,287.1
"2010-03-08 01:19:00",1742837,4.158,325.6,5.947,1.2,8.34,101.5954,3.37,4.762,74.27,0,109.8,13.48,4.13,287.6
"2010-03-08 01:19:30",1742838,4.287,324.9,5.892,1.129,7.872,101.5963,3.373,4.644,74.09,0,109.8,13.48,4.14,286.9
"2010-03-08 01:20:00",1742839,3.387,318.5,6.104,1.219,6.1,101.5972,3.375,4.631,73.99,0,109.8,13.48,4.14,280.5
"2010-03-08 01:20:30",1742840,2.492,312.3,0.977,0.04,3.917,101.5995,3.381,4.452,73.63,0,109.8,13.52,4.14,274.3
"2010-03-08 01:21:00",1742841,2.982,309,4.296,1.018,4.922,101.6029,3.389,4.449,73.49,0,109.8,13.48,4.15,271.0
"2010-03-08 01:21:30",1742842,4.312,311.8,5.952,1.195,8.04,101.6018,3.387,4.641,73.62,0,109.8,13.48,4.15,273.8
"2010-03-08 01:22:00",1742843,4.288,309.5,4.9,1.165,8.93,101.6061,3.398,4.719,73.73,0,109.8,13.49,4.16,271.5
"2010-03-08 01:22:30",1742844,4.076,304.1,6.315,1.134,8.33,101.6064,3.398,4.694,73.84,0,109.8,13.48,4.16,266.1
"2010-03-08 01:23:00",1742845,3.643,302.2,5.985,1.239,7.991,101.6124,3.414,4.677,73.89,0,109.8,13.48,4.18,264.2
"2010-03-08 01:23:30",1742846,2.1,295.4,1.068,0.019,4.35,101.6127,3.414,4.443,73.78,0,109.8,13.52,4.18,257.4
"2010-03-08 01:24:00",1742847,2.138,297,0.713,0.03,3.998,101.6184,3.429,4.447,73.86,0,109.8,13.51,4.19,259.0
"2010-03-08 01:24:30",1742848,3.158,299.8,5.873,1.231,6.566,101.6179,3.428,4.55,74,0,109.8,13.48,4.19,261.8
"2010-03-08 01:25:00",1742849,3.585,300.9,6.735,1.263,7.945,101.6216,3.437,4.732,74.22,0,109.8,13.48,4.20,262.9
"2010-03-08 01:25:30",1742850,4.328,303.8,5.078,0.828,8.97,101.6204,3.434,4.675,74.26,0,109.8,13.48,4.20,265.8
"2010-03-08 01:26:00",1742851,3.652,301.8,5.837,1.238,8.15,101.625,3.446,4.699,74.3,0,109.7,13.48,4.21,263.8
"2010-03-08 01:26:30",1742852,2.961,297.2,6.341,1.277,6.626,101.6273,3.452,4.573,74.21,0,109.7,13.48,4.22,259.2
"2010-03-08 01:27:00",1742853,1.945,301,4.18,0.079,3.869,101.6273,3.452,4.439,74.14,0,109.7,13.52,4.22,263.0
"2010-03-08 01:27:30",1742854,1.945,301.9,4.483,0.144,3.851,101.6257,3.447,4.435,74.19,0,109.7,13.52,4.21,263.9
"2010-03-08 01:28:00",1742855,3.339,303.7,6.311,1.302,6.482,101.6228,3.44,4.485,74.22,0,109.7,13.49,4.20,265.7
"2010-03-08 01:28:30",1742856,3.634,301.8,5.851,1.17,7.685,101.6189,3.43,4.634,74.36,0,109.7,13.5,4.19,263.8
"2010-03-08 01:29:00",1742857,3.9,298.6,5.305,1.037,9,101.6118,3.412,4.73,74.43,0,109.7,13.5,4.18,260.6
"2010-03-08 01:29:30",1742858,3.783,295.1,5.249,1.169,8.57,101.6042,3.393,4.67,74.4,0,109.7,13.5,4.16,257.1
"2010-03-08 01:30:00",1742859,2.906,286.8,6.502,1.234,6.612,101.5999,3.382,4.531,74.29,0,109.7,13.5,4.15,248.8
"2010-03-08 01:30:30",1742860,1.808,280.4,1.114,0.038,4.331,101.5985,3.378,4.449,74.17,0,109.7,13.53,4.14,242.4
"2010-03-08 01:31:00",1742861,1.708,278.9,2.257,0.068,4.149,101.5957,3.371,4.451,74.2,0,109.7,13.53,4.13,240.9
"2010-03-08 01:31:30",1742862,1.487,287.9,5.095,0.113,4.209,101.5948,3.369,4.472,74.23,0,109.7,13.5,4.13,249.9
"2010-03-08 01:32:00",1742863,3.185,302.8,8.81,1.214,7.917,101.5948,3.369,4.685,74.35,0,109.7,13.5,4.13,264.8
"2010-03-08 01:32:30",1742864,3.007,305.2,7.237,1.226,8.11,101.5948,3.369,4.707,74.25,0,109.7,13.5,4.13,267.2
"2010-03-08 01:33:00",1742865,3.026,312.6,7.195,1.231,7.227,101.5948,3.369,4.625,74.04,0,109.7,13.5,4.13,274.6
"2010-03-08 01:33:30",1742866,2.803,317,5.739,1.25,5.976,101.5948,3.369,4.604,73.88,0,109.7,13.5,4.13,279.0
"2010-03-08 01:34:00",1742867,1.669,315.5,2.312,0.078,3.244,101.5948,3.369,4.431,73.58,0,109.7,13.54,4.13,277.5
"2010-03-08 01:34:30",1742868,1.844,317.6,2.797,0.087,3.222,101.5948,3.369,4.417,73.44,0,109.7,13.54,4.13,279.6
"2010-03-08 01:35:00",1742869,2.114,323.3,5.701,0.574,4.117,101.5948,3.369,4.529,73.43,0,109.7,13.51,4.13,285.3
"2010-03-08 01:35:30",1742870,4.107,335.4,5.837,1.104,7.748,101.5948,3.369,4.62,73.34,0,109.8,13.51,4.13,297.4
"2010-03-08 01:36:00",1742871,4.339,334.6,4.994,0.808,8.81,101.5948,3.369,4.746,73.32,0,109.7,13.51,4.13,296.6
"2010-03-08 01:36:30",1742872,3.847,327.9,6.646,1.181,7.788,101.5937,3.366,4.658,73.21,0,109.8,13.51,4.13,289.9
"2010-03-08 01:37:00",1742873,2.869,318.2,7.728,1.205,5.57,101.5844,3.342,4.546,73.05,0,109.7,13.5,4.11,280.2
"2010-03-08 01:37:30",1742874,1.85,302.5,5.586,0.191,3.701,101.5787,3.328,4.386,72.89,0,109.7,13.54,4.09,264.5
"2010-03-08 01:38:00",1742875,1.728,300,3.494,0.088,3.681,101.5615,3.284,4.384,72.92,0,109.7,13.54,4.05,262.0
"2010-03-08 01:38:30",1742876,2.615,313,5.038,1.175,5.941,101.5609,3.282,4.527,73.08,0,109.7,13.51,4.05,275.0
"2010-03-08 01:39:00",1742877,3.1,308,7.206,1.295,7.112,101.5618,3.284,4.569,73.21,0,109.7,13.51,4.05,270.0
"2010-03-08 01:39:30",1742878,3.646,312.4,5.821,1.077,9.09,101.5623,3.286,4.688,73.39,0,109.7,13.51,4.05,274.4
"2010-03-08 01:40:00",1742879,3.642,306.3,6.265,1.118,8.35,101.5618,3.284,4.602,73.42,0,109.7,13.5,4.05,268.3
"2010-03-08 01:40:30",1742880,2.538,296.4,5.765,1.184,5.951,101.5561,3.27,4.451,73.37,0,109.7,13.5,4.03,258.4
"2010-03-08 01:41:00",1742881,1.673,304.3,3.032,0.041,3.604,101.5398,3.228,4.328,73.35,0,109.7,13.54,3.99,266.3
"2010-03-08 01:41:30",1742882,1.723,311.2,1.56,0.044,3.448,101.5359,3.218,4.338,73.42,0,109.7,13.54,3.98,273.2
"2010-03-08 01:42:00",1742883,2.383,310.2,3.385,1.112,5.474,101.5367,3.221,4.441,73.59,0,109.7,13.51,3.98,272.2
"2010-03-08 01:42:30",1742884,3.292,309.9,6.069,1.187,7.735,101.5399,3.229,4.512,73.66,0,109.7,13.51,3.99,271.9
"2010-03-08 01:43:00",1742885,3.024,299,8.02,1.248,8.12,101.5456,3.243,4.505,73.65,0,109.7,13.51,4.01,261.0
"2010-03-08 01:43:30",1742886,3.306,286.1,8.28,1.14,8.28,101.5488,3.251,4.569,73.76,0,109.7,13.51,4.01,248.1
"2010-03-08 01:44:00",1742887,2.984,270.4,7.911,1.232,6.598,101.5511,3.257,4.399,73.76,0,109.7,13.51,4.02,232.4
"2010-03-08 01:44:30",1742888,1.951,251,4.044,0.055,4.493,101.5474,3.248,4.279,73.85,0,109.7,13.55,4.01,213.0
"2010-03-08 01:45:00",1742889,2.348,244.9,2.772,0.119,5.049,101.5457,3.243,4.29,74.08,0,109.7,13.55,4.01,206.9
"2010-03-08 01:45:30",1742890,2.498,245.7,0.795,0.478,5.942,101.5463,3.245,4.3,74.28,0,109.7,13.52,4.01,207.7
"2010-03-08 01:46:00",1742891,3.928,257,6.598,1.211,9.56,101.5503,3.255,4.528,74.65,0,109.7,13.52,4.02,219.0
"2010-03-08 01:46:30",1742892,4.535,263.2,4.805,0.796,11.05,101.5543,3.265,4.51,74.74,0,109.7,13.52,4.03,225.2
"2010-03-08 01:47:00",1742893,3.529,262,7.102,1.242,9.29,101.5597,3.279,4.517,74.8,0,109.7,13.52,4.04,224.0
"2010-03-08 01:47:30",1742894,3.112,263.5,5.574,1.271,8.28,101.5588,3.277,4.424,74.81,0,109.7,13.52,4.04,225.5
"2010-03-08 01:48:00",1742895,2.125,261,2.852,0.122,5.686,101.5614,3.284,4.287,74.73,0,109.7,13.55,4.05,223.0
"2010-03-08 01:48:30",1742896,2.189,260.6,0.973,0.032,5.449,101.5611,3.283,4.295,74.78,0,109.7,13.55,4.05,222.6